Location: Mannheim
(49.4880°N, 8.4650°E)
Time: 06:28:50
(UTC+02:00)

ACS3 Solar Sail - Pass Details

Date: 29 September 2024
Orbit: 963 x 1036 km, 97.4° (Epoch: 04 October)

Event Time Altitude Azimuth Distance (km) Brightness Sun altitude
Exits shadow 20:32:17 15° 133° (SE) 2,499 3.4 -14.4°
Maximum altitude 20:37:21 45° 67° (ENE) 1,382 2.2 -15.2°
Drops below altitude 10° 20:43:21 10° 357° (N) 2,823 4.4 -16.2°
Sets 20:45:56 0° 352° (N) 3,769 5.2 -16.6°
